Location: Rostock
(54.0884°N, 12.1234°E)
Time: 14:11:55
(UTC+02:00)

ISS - Pass Details

Date: 08 January 2018
Orbit: 402 x 409 km, 51.6° (Epoch: 21 August)

Event Time Altitude Azimuth Distance (km) Brightness Sun altitude
Exits shadow 05:12:41 23° 107° (ESE) 960 -1.3 -27.4°
Drops below altitude 10° 05:14:07 10° 100° (E) 1,514 0.0 -27.1°
Sets 05:16:15 0° 96° (E) 2,383 1.4 -26.8°
